Overview Statistics Trail Chart Weather Telemetry Raw packets
 

This is the latest recevied weather packets stored in our database for station/object WL7CLI. If no packets are shown the sender has not sent any weather packets the latest 10 day(s).

<< 53 54 55 56 57 58 59 >>
Time Temp. Humidity Pressure Rain* Wind** Luminosity Snow
1788202833 33.33° C 61% 1010.5 hPa 0 mm - - -
1788202684 33.33° C 61% 1012.6 hPa 0 mm - - -
1788202506 33.33° C 61% 1010.5 hPa 0 mm - - -
1788201632 33.33° C 61% 1010.5 hPa 0 mm - - -
1788201311 33.33° C 61% 1010.6 hPa 0 mm - - -
1788200884 33.33° C 60% 1012.6 hPa 0 mm - - -
1788200432 33.33° C 59% 1010.6 hPa 0 mm - - -
1788200105 33.33° C 62% 1010.6 hPa 0 mm - - -
1788199234 33.33° C 59% 1010.4 hPa 0 mm - - -
1788199084 33.33° C 61% 1012.5 hPa 0 mm - - -
1788198907 32.78° C 60% 1010.4 hPa 0 mm - - -
1788198435 32.78° C 60% 1010.7 hPa 0 mm - - -
1788198033 32.78° C 60% 1010.7 hPa 0 mm - - -
1788197707 32.78° C 60% 1010.7 hPa 0 mm - - -
1788197284 32.78° C 60% 1012.8 hPa 0 mm - - -
1788196833 32.22° C 59% 1010.7 hPa 0 mm - - -
1788196000 31.67° C 63% 1010.6 hPa 0 mm - - -
1788195633 32.22° C 61% 1010.7 hPa 0 mm - - -
1788195484 32.22° C 62% 1012.7 hPa 0 mm - - -
1788195321 31.67° C 63% 1010.6 hPa 0 mm - - -
1788194580 31.11° C 64% 1010.5 hPa 0 mm - - -
1788194440 31.11° C 65% 1010.6 hPa 0 mm - - -
1788194107 31.11° C 64% 1010.5 hPa 0 mm - - -
1788193684 30.56° C 62% 1012.3 hPa 0 mm - - -
1788193232 30.56° C 63% 1010.5 hPa 0 mm - - -

* Rain latest hour (hover to see other rain measurements)
** Current wind speed in m/s (hover to see current wind gust speed)